[[{"header":{"parameterUnit":"m.s-1","parameterCategory":1,"la1":30.2991,"la2":30.254,"lo1":-89.0895,"lo2":-89.0444,"dy":0.0017,"dx":0.0017,"nx":28,"ny":28,"refTime":"2024-07-14T03:00:00:Z","depth":0,"parameterNumber":2,"parameterNumberName":"U-component_of_WINDS"},"data":[0,0,0,0,0,0,0,0,0,0,0,0,0,0,0,0,0,0,0,0,0,0,0,0,0,0,0,0,0,0,0,0,0,0,0,0,0,0,0,0,0,0,0,0,0,0,0,0,0,0,0,0,0,0,0,0,0,0,0.2078,0.2079,0,0.2194,0.2195,0.2196,0.2263,0.2264,0.2264,0.2264,0.2375,0.2377,0.238,0,0,0,0,0,0,0,0,0,0,0,0,0,0.1906,0.1909,0.2078,0.2079,0.2081,0.2193,0.2195,0.2196,0.2263,0.2264,0.2264,0.2264,0.2374,0.2377,0.238,0,0,0,0,0,0,0,0,0,0,0,0,0,0.1997,0.191,0.2077,0.2128,0.2133,0.2193,0.2195,0.2197,0.2263,0.2264,0.2264,0.2264,0.2373,0.2376,0.238,0.2397,0,0,0.2393,0.2394,0,0,0,0,0,0,0,0,0.1992,0.2003,0.2119,0.2124,0.2131,0.2215,0.2175,0.2264,0.2263,0.2214,0.2264,0.2265,0.232,0.2329,0.2349,0.2402,0.2406,0.2393,0.2395,0.2397,0.2398,0,0,0,0,0,0,0,0.1985,0.1999,0.2123,0.212,0.2128,0.2142,0.2155,0.2192,0.2263,0.2218,0.2223,0.2236,0.2324,0.2345,0.2352,0.2408,0.2393,0.2396,0.2399,0.2401,0.2479,0.2479,0,0,0,0,0,0,0.1972,0.1993,0.212,0.2127,0.2061,0.2145,0.216,0.2187,0.2263,0.2275,0.2236,0.2239,0.2338,0.2348,0.2356,0.2381,0.2397,0.2401,0.2403,0.248,0.2479,0.2479,0,0,0,0,0,0,0.1968,0.1983,0.2115,0.2061,0.2079,0.2147,0.2177,0.2189,0.2211,0.2277,0.2289,0.2245,0.2339,0.2351,0.2387,0.2385,0.2403,0.2406,0.248,0.248,0.2479,0.2429,0,0,0,0,0,0,0.1963,0.1981,0.199,0.2061,0.2082,0.2145,0.2177,0.2191,0.2219,0.2224,0.2289,0.23,0.234,0.238,0.2391,0.2391,0.2409,0.248,0.248,0.2479,0.2431,0.2426,0.2423,0,0,0,0,0,0.1957,0.1969,0.199,0.2005,0.2095,0.2145,0.2157,0.2205,0.2218,0.2226,0.2268,0.2298,0.2384,0.2383,0.2396,0.2397,0.2481,0.248,0.2479,0.2432,0.2427,0.2423,0,0,0,0,0,0,0.1892,0.1979,0.2003,0.204,0.2085,0.2156,0.2168,0.2198,0.2239,0.2242,0.2298,0.2312,0.2342,0.2373,0.2371,0.2417,0.2435,0.2437,0.2396,0.2391,0.2387,0.2379,0.2413,0,0,0,0,0,0.1883,0.192,0.1992,0.2017,0.2039,0.2099,0.2123,0.2157,0.2205,0.2224,0.2268,0.2312,0.2349,0.2372,0.2409,0.2436,0.245,0.2443,0.2439,0.2435,0.2436,0.2452,0.2449,0.2477,0.2477,0.2477,0,0,0.1863,0.1915,0.1934,0.2005,0.2045,0.2079,0.2115,0.2149,0.2175,0.2228,0.2266,0.23,0.2352,0.2383,0.2399,0.241,0.2432,0.2434,0.2431,0.2434,0.2451,0.2448,0.2446,0.2476,0.2476,0.2476,0,0,0.1844,0.1887,0.1913,0.1952,0.2012,0.2052,0.2058,0.2126,0.2152,0.2191,0.2232,0.2261,0.2324,0.2359,0.2385,0.238,0.2408,0.2391,0.237,0.2385,0.2383,0.2381,0.2379,0.2378,0.2391,0.2391,0.2391,0,0.181,0.1866,0.1921,0.1955,0.1984,0.2037,0.2063,0.2097,0.2164,0.2182,0.2194,0.2275,0.2313,0.2354,0.2353,0.2372,0.2379,0.2383,0.2379,0.2378,0.2377,0.2376,0.2375,0.2388,0.2389,0.2389,0.2389,0,0.1822,0.186,0.1873,0.1941,0.1972,0.2,0.2058,0.2082,0.2113,0.2152,0.219,0.2238,0.2287,0.2299,0.2328,0.2343,0.2349,0.2369,0.2389,0.2371,0.2371,0.2371,0.2385,0.2386,0.2386,0.2387,0,0,0.1765,0.1864,0.1868,0.1899,0.197,0.1999,0.2029,0.208,0.2099,0.2144,0.217,0.2222,0.2242,0.2271,0.2305,0.2318,0.2311,0.2337,0.2339,0.2331,0.233,0.2314,0.2313,0.2331,0.2331,0.2331,0.2326,0,0.1756,0.1817,0.1867,0.1908,0.1943,0.1994,0.202,0.2065,0.2101,0.2135,0.2174,0.221,0.2234,0.2252,0.2268,0.2309,0.2312,0.231,0.2353,0.2354,0.2339,0.2313,0.2296,0.2289,0.2326,0.2326,0.2326,0,0.1753,0.18,0.1845,0.1912,0.1929,0.1952,0.2003,0.2034,0.2085,0.2111,0.2144,0.218,0.2213,0.2229,0.2274,0.2272,0.2292,0.2315,0.2316,0.2321,0.2339,0.2317,0.2288,0.2287,0.2326,0.2326,0.2326,0,0.1707,0.178,0.1817,0.1842,0.1922,0.1937,0.197,0.2022,0.2049,0.2092,0.211,0.2155,0.2179,0.2212,0.2259,0.2267,0.2298,0.2319,0.2319,0.2317,0.2323,0.2322,0.2296,0.2336,0.2336,0.2336,0.2336,0,0.1692,0.1717,0.1798,0.182,0.1849,0.1906,0.1933,0.197,0.2016,0.2045,0.209,0.2116,0.2176,0.2208,0.2244,0.2275,0.2286,0.2306,0.2315,0.2302,0.23,0.2316,0.2318,0.2336,0.2336,0.2336,0.2336,0,0.1645,0.17,0.1743,0.1816,0.1835,0.1853,0.1914,0.1937,0.1977,0.2012,0.2024,0.2085,0.2125,0.2176,0.2231,0.2255,0.2282,0.2296,0.2266,0.2271,0.2268,0.2268,0.2252,0.2253,0.2292,0.2292,0.2291,0,0.1631,0.1653,0.1728,0.1753,0.1786,0.1824,0.1853,0.1909,0.1936,0.1997,0.2011,0.2056,0.2094,0.2156,0.2204,0.2246,0.2261,0.2253,0.2268,0.2254,0.2261,0.2259,0.2261,0.2249,0.2248,0.2248,0.2247,0,0.1601,0.1628,0.1669,0.1721,0.1755,0.1797,0.184,0.1857,0.1921,0.195,0.1993,0.2023,0.2081,0.2124,0.2173,0.2205,0.2236,0.2243,0.2245,0.2231,0.2213,0.2223,0.2255,0.2242,0.2243,0.2243,0.2243,0.2244,0.157,0.1592,0.165,0.1694,0.1734,0.1774,0.1799,0.1843,0.1881,0.1935,0.1965,0.2007,0.2057,0.2127,0.2157,0.2189,0.2201,0.2204,0.2205,0.2205,0.2201,0.2208,0.2198,0.2199,0.2199,0.2199,0.2199,0,0.1543,0.1583,0.1623,0.1685,0.172,0.175,0.18,0.1826,0.1863,0.1909,0.1947,0.1996,0.2038,0.209,0.2135,0.2151,0.2166,0.2161,0.216,0.2167,0.2188,0.2181,0.2148,0.2148,0.2148,0.2148,0.2148,0.2148,0.1532,0.1571,0.1604,0.1662,0.1701,0.1745,0.1771,0.1808,0.1845,0.1899,0.1935,0.197,0.2017,0.2067,0.2106,0.212,0.2134,0.2124,0.2142,0.2161,0.2165,0.2169,0.2164,0.2127,0.2127,0.2119,0.2118,0.2118]},{"header":{"parameterUnit":"m.s-1","parameterCategory":1,"la1":30.2991,"la2":30.254,"lo1":-89.0895,"lo2":-89.0444,"dy":0.0017,"dx":0.0017,"nx":28,"ny":28,"refTime":"2024-07-14T03:00:00:Z","depth":0,"parameterNumber":3,"parameterNumberName":"V-component_of_WINDS"},"data":[0,0,0,0,0,0,0,0,0,0,0,0,0,0,0,0,0,0,0,0,0,0,0,0,0,0,0,0,0,0,0,0,0,0,0,0,0,0,0,0,0,0,0,0,0,0,0,0,0,0,0,0,0,0,0,0,0,0,2.9655,2.9655,0,2.9653,2.9653,2.9653,2.9639,2.9639,2.9639,2.9638,2.9636,2.9636,2.9636,0,0,0,0,0,0,0,0,0,0,0,0,0,2.9648,2.9648,2.9655,2.9655,2.9655,2.9653,2.9653,2.9653,2.9639,2.9639,2.9639,2.9638,2.9636,2.9636,2.9636,0,0,0,0,0,0,0,0,0,0,0,0,0,2.9649,2.9648,2.9655,2.9648,2.9647,2.9653,2.9653,2.9653,2.9639,2.9639,2.9639,2.9638,2.9636,2.9636,2.9636,2.9648,0,0,2.9637,2.9637,0,0,0,0,0,0,0,0,2.9649,2.9649,2.9649,2.9649,2.9648,2.9646,2.9649,2.9651,2.964,2.9642,2.9638,2.9638,2.9639,2.9639,2.964,2.9648,2.9647,2.9637,2.9637,2.9638,2.9638,0,0,0,0,0,0,0,2.9649,2.9649,2.9654,2.9649,2.9648,2.9645,2.9645,2.9649,2.9644,2.9642,2.9641,2.9641,2.9639,2.964,2.964,2.9647,2.9637,2.9638,2.9638,2.9638,2.9665,2.9666,0,0,0,0,0,0,2.965,2.9649,2.9654,2.9654,2.9647,2.9646,2.9645,2.9647,2.9644,2.9643,2.9642,2.9641,2.9639,2.9639,2.964,2.9653,2.9638,2.9638,2.9638,2.9665,2.9665,2.9666,0,0,0,0,0,0,2.965,2.965,2.9654,2.9651,2.9652,2.9646,2.9648,2.9647,2.9648,2.9643,2.9642,2.9643,2.9639,2.9639,2.9646,2.9653,2.9638,2.9638,2.9664,2.9665,2.9665,2.9681,0,0,0,0,0,0,2.965,2.965,2.9655,2.9652,2.9652,2.9661,2.9649,2.9647,2.9648,2.9647,2.9644,2.9644,2.9639,2.9646,2.9646,2.9653,2.9639,2.9663,2.9664,2.9665,2.968,2.9682,2.9684,0,0,0,0,0,2.9649,2.9659,2.9655,2.9656,2.9657,2.9661,2.9661,2.9655,2.9649,2.9653,2.965,2.9644,2.9652,2.9646,2.9647,2.9654,2.9663,2.9664,2.9665,2.9679,2.9682,2.9684,0,0,0,0,0,0,2.9663,2.9658,2.9654,2.9663,2.9662,2.9659,2.9664,2.9658,2.966,2.9658,2.9651,2.9651,2.9659,2.9657,2.9651,2.9666,2.9656,2.9658,2.9666,2.9669,2.9671,2.9672,2.9639,0,0,0,0,0,2.9667,2.9671,2.9666,2.9675,2.9675,2.9669,2.9671,2.9667,2.9666,2.9665,2.9663,2.9662,2.9665,2.9667,2.9669,2.9679,2.9679,2.9685,2.9687,2.9689,2.969,2.9696,2.9699,2.967,2.967,2.967,0,0,2.9675,2.9673,2.9676,2.9677,2.9676,2.968,2.9669,2.9674,2.9677,2.9666,2.9673,2.9671,2.967,2.9678,2.9682,2.9677,2.9698,2.969,2.9692,2.9692,2.9697,2.97,2.9703,2.967,2.967,2.967,0,0,2.9693,2.9691,2.9698,2.9698,2.9697,2.9693,2.9695,2.9692,2.9691,2.9697,2.9689,2.9693,2.9697,2.9697,2.9697,2.9715,2.9709,2.9716,2.9728,2.9733,2.9736,2.9738,2.9744,2.9747,2.9717,2.9717,2.9717,0,2.9703,2.9709,2.9702,2.9708,2.9709,2.9699,2.9707,2.9706,2.9706,2.9707,2.9702,2.9707,2.9706,2.9715,2.9719,2.972,2.9722,2.9716,2.9736,2.9738,2.974,2.9746,2.9748,2.9718,2.9718,2.9718,2.9718,0,2.9722,2.9726,2.9732,2.9732,2.9734,2.974,2.9735,2.9737,2.9733,2.973,2.9736,2.9734,2.9736,2.9738,2.9733,2.9746,2.9743,2.9737,2.9728,2.9743,2.9749,2.9752,2.9719,2.9719,2.9719,2.9719,0,0,2.9748,2.9745,2.9747,2.9747,2.9746,2.9749,2.9755,2.9757,2.9759,2.9759,2.9764,2.9768,2.9762,2.9763,2.9758,2.9763,2.9778,2.9756,2.9756,2.9761,2.9793,2.9798,2.9801,2.9774,2.9775,2.9775,2.9793,0,2.9765,2.9775,2.977,2.978,2.9784,2.9776,2.9781,2.978,2.9778,2.9781,2.9778,2.9781,2.9773,2.9774,2.9778,2.9776,2.9785,2.9774,2.9779,2.9779,2.978,2.9804,2.9809,2.9827,2.9795,2.9796,2.9796,0,2.9786,2.9788,2.9799,2.9797,2.9799,2.9803,2.9805,2.9808,2.9807,2.9805,2.9806,2.98,2.9806,2.9797,2.9805,2.9797,2.9799,2.9798,2.9799,2.9799,2.9789,2.9806,2.9832,2.9835,2.9799,2.9799,2.9799,0,2.9805,2.981,2.9817,2.9817,2.9815,2.9819,2.9818,2.9817,2.9819,2.982,2.9821,2.9823,2.9824,2.9826,2.9821,2.9814,2.9829,2.9819,2.9828,2.9828,2.9832,2.9832,2.986,2.9832,2.9832,2.9832,2.9832,0,2.9825,2.9832,2.9825,2.983,2.9838,2.9832,2.984,2.9838,2.9837,2.9842,2.9834,2.9838,2.9831,2.9835,2.9831,2.9838,2.9839,2.9837,2.9836,2.9838,2.9839,2.984,2.9838,2.9833,2.9833,2.9833,2.9833,0,2.9847,2.9843,2.9851,2.9848,2.9847,2.9854,2.9851,2.9855,2.9852,2.9858,2.9859,2.9854,2.9858,2.9853,2.9856,2.9854,2.9864,2.9861,2.9864,2.9864,2.9873,2.9872,2.9902,2.9906,2.9876,2.9876,2.9877,0,2.9861,2.9866,2.9864,2.9867,2.9866,2.987,2.9872,2.9866,2.9868,2.9868,2.9872,2.9875,2.9878,2.9884,2.9881,2.9883,2.9881,2.9891,2.9881,2.9883,2.9881,2.9881,2.9882,2.9893,2.9894,2.9894,2.9894,0,2.9885,2.9883,2.9886,2.9888,2.989,2.9892,2.9892,2.9895,2.9888,2.9891,2.9895,2.9897,2.99,2.9903,2.9905,2.9904,2.9898,2.9897,2.9899,2.9902,2.9904,2.9903,2.9871,2.9897,2.9896,2.9896,2.9896,2.9896,2.9904,2.9909,2.9908,2.9912,2.9912,2.9913,2.9917,2.9914,2.9917,2.992,2.9916,2.9921,2.992,2.9922,2.9922,2.9926,2.9921,2.9924,2.9925,2.9926,2.9928,2.9903,2.9926,2.9926,2.9926,2.9926,2.9925,0,2.9929,2.9928,2.9931,2.9933,2.9935,2.9929,2.993,2.9933,2.9937,2.9937,2.994,2.9944,2.9947,2.9945,2.9947,2.9951,2.9948,2.9952,2.9952,2.9952,2.9931,2.9929,2.9954,2.9954,2.9954,2.9954,2.9954,2.9954,2.9942,2.995,2.9947,2.9955,2.9954,2.9959,2.996,2.9961,2.9961,2.9966,2.9969,2.9967,2.9966,2.9969,2.9972,2.9971,2.9972,2.9977,2.9975,2.9956,2.9953,2.9951,2.9949,2.9977,2.9977,2.9995,2.9996,2.9996]}]]